Location: Beaver Dam Church
(34.5318°N, 88.9828°W)
Time: 10:43:20
(UTC+00:00)

Envisat - Pass Details

Date: 29 October 2020
Orbit: 764 x 766 km, 98.1° (Epoch: 25 November)

Event Time Altitude Azimuth Distance (km) Brightness Sun altitude
Rises 23:38:33 0° 183° (S) 3,216 6.4 -7.6°
Reaches altitude 10° 23:40:57 10° 190° (S) 2,294 5.8 -8.1°
Maximum altitude 23:45:44 42° 261° (W) 1,079 4.5 -9.0°
Drops below altitude 10° 23:50:33 10° 332° (NNW) 2,307 5.7 -10.0°
Sets 23:52:59 0° 340° (NNW) 3,237 6.4 -10.5°
